ProjectID,Date,Electric Generation,Electric Utility Import,Facility Electric Load
,YYYY-MM-DD,kW,kW,kW
305,2016-02-01,14.936666666666667,,14.936666666666667
305,2016-02-02,99.13833333333334,,99.13833333333334
305,2016-02-03,6.536666666666666,,6.536666666666666
305,2016-02-04,57.11833333333333,,57.11833333333333
305,2016-02-05,63.57833333333334,,63.57833333333334
305,2016-02-06,65.15166666666667,,65.15166666666667
305,2016-02-07,105.065,,105.065
305,2016-02-08,49.02166666666667,,49.02166666666667
305,2016-02-09,2.4899999999999998,,2.4899999999999998
305,2016-02-10,5.223333333333334,,5.223333333333334
305,2016-02-11,21.311666666666667,,21.311666666666667
305,2016-02-12,4.121666666666667,,4.121666666666667
305,2016-02-13,0.0,,0.0
305,2016-02-14,0.0,,0.0
305,2016-02-15,0.0,,0.0
305,2016-02-16,0.0,,0.0
305,2016-02-17,0.0,,0.0
305,2016-02-18,0.0,,0.0
305,2016-02-19,0.0,,0.0
305,2016-02-20,0.0,,0.0
305,2016-02-21,0.0,,0.0
305,2016-02-22,0.0,,0.0
305,2016-02-23,0.0,,0.0
305,2016-02-24,0.6366666666666666,,0.6366666666666666
305,2016-02-25,25.013333333333335,,25.013333333333335
305,2016-02-26,140.92333333333332,,140.92333333333332
305,2016-02-27,131.97666666666666,,131.97666666666666
305,2016-02-28,119.86,,119.86
305,2016-02-29,3.9933333333333336,,3.9933333333333336
305,2016-03-01,48.60666666666666,,48.60666666666666
305,2016-03-02,14.791666666666666,,14.791666666666666
305,2016-03-03,0.0,,0.0
305,2016-03-04,0.0,,0.0
305,2016-03-05,0.0,,0.0
305,2016-03-06,0.0,,0.0
305,2016-03-07,1.5283333333333333,,1.5283333333333333
305,2016-03-08,129.05666666666667,,129.05666666666667
305,2016-03-09,134.85833333333332,,134.85833333333332
305,2016-03-10,16.468333333333334,,16.468333333333334
305,2016-03-11,132.125,,132.125
305,2016-03-12,151.47166666666666,,151.47166666666666
305,2016-03-13,104.83,,104.83
305,2016-03-14,19.37,,19.37
305,2016-03-15,84.63833333333334,,84.63833333333334
305,2016-03-16,119.60833333333333,,119.60833333333333
305,2016-03-17,102.685,,102.685
305,2016-03-18,98.38166666666666,,98.38166666666666
305,2016-03-19,173.64166666666665,,173.64166666666665
305,2016-03-20,113.30666666666667,,113.30666666666667
305,2016-03-21,160.52666666666667,,160.52666666666667
305,2016-03-22,156.64666666666668,,156.64666666666668
305,2016-03-23,47.48500000000001,,47.48500000000001
305,2016-03-24,124.85666666666667,,124.85666666666667
305,2016-03-25,86.98166666666667,,86.98166666666667
305,2016-03-26,153.475,,153.475
305,2016-03-27,150.35166666666666,,150.35166666666666
305,2016-03-28,29.915000000000003,,29.915000000000003
305,2016-03-29,171.35333333333332,,171.35333333333332
305,2016-03-30,175.87,,175.87
305,2016-03-31,93.125,,93.125
305,2016-04-01,54.41833333333333,,54.41833333333333
305,2016-04-02,58.403333333333336,,58.403333333333336
305,2016-04-03,0.0,,0.0
305,2016-04-04,0.0,,0.0
305,2016-04-05,0.0,,0.0
305,2016-04-06,0.0,,0.0
305,2016-04-07,0.0,,0.0
305,2016-04-08,0.0,,0.0
305,2016-04-09,0.0,,0.0
305,2016-04-10,0.0,,0.0
305,2016-04-11,0.0,,0.0
305,2016-04-12,0.0,,0.0
305,2016-04-13,0.0,,0.0
305,2016-04-14,137.94833333333335,,137.94833333333335
305,2016-04-15,184.50166666666667,,184.50166666666667
305,2016-04-16,179.49666666666667,,179.49666666666667
305,2016-04-17,173.62666666666667,,173.62666666666667
305,2016-04-18,170.63,,170.63
305,2016-04-19,150.47333333333333,,150.47333333333333
305,2016-04-20,182.98166666666668,,182.98166666666668
305,2016-04-21,172.50833333333333,,172.50833333333333
305,2016-04-22,80.44,,80.44
305,2016-04-23,125.47333333333334,,125.47333333333334
305,2016-04-24,181.12666666666667,,181.12666666666667
305,2016-04-25,74.71833333333333,,74.71833333333333
305,2016-04-26,24.400000000000002,,24.400000000000002
305,2016-04-27,189.51333333333332,,189.51333333333332
305,2016-04-28,163.91,,163.91
305,2016-04-29,128.51333333333335,,128.51333333333335
305,2016-04-30,167.66333333333333,,167.66333333333333
305,2016-05-01,40.01166666666666,,40.01166666666666
305,2016-05-02,37.49666666666666,,37.49666666666666
305,2016-05-03,43.09166666666667,,43.09166666666667
305,2016-05-04,0.0,,0.0
305,2016-05-05,12.483333333333334,,12.483333333333334
305,2016-05-06,60.88166666666667,,60.88166666666667
305,2016-05-07,124.71,,124.71
305,2016-05-08,131.045,,131.045
305,2016-05-09,192.265,,192.265
305,2016-05-10,177.755,,177.755
305,2016-05-11,186.85666666666668,,186.85666666666668
305,2016-05-12,174.97,,174.97
305,2016-05-13,31.516666666666666,,31.516666666666666
305,2016-05-14,130.105,,130.105
305,2016-05-15,125.675,,125.675
305,2016-05-16,156.63,,156.63
305,2016-05-17,108.64666666666666,,108.64666666666666
305,2016-05-18,170.76666666666665,,170.76666666666665
305,2016-05-19,122.89833333333333,,122.89833333333333
305,2016-05-20,100.05166666666666,,100.05166666666666
305,2016-05-21,0.0,,0.0
305,2016-05-22,0.0,,0.0
305,2016-05-23,0.0,,0.0
305,2016-05-24,0.0,,0.0
305,2016-05-25,0.0,,0.0
305,2016-05-26,0.0,,0.0
305,2016-05-27,0.0,,0.0
305,2016-05-28,0.0,,0.0
305,2016-05-29,0.0,,0.0
305,2016-05-30,0.0,,0.0
305,2016-05-31,0.0,,0.0
305,2016-06-01,0.0,,0.0
305,2016-06-02,0.0,,0.0
305,2016-06-03,0.0,,0.0
305,2016-06-04,0.0,,0.0
305,2016-06-05,0.0,,0.0
305,2016-06-06,0.0,,0.0
305,2016-06-07,0.0,,0.0
305,2016-06-08,0.0,,0.0
305,2016-06-09,0.0,,0.0
305,2016-06-10,0.0,,0.0
305,2016-06-11,0.0,,0.0
305,2016-06-12,0.0,,0.0
305,2016-06-13,57.306666666666665,,57.306666666666665
305,2016-06-14,0.0,,0.0
305,2016-06-15,0.6866666666666666,,0.6866666666666666
305,2016-06-16,0.0,,0.0
305,2016-06-17,0.0,,0.0
305,2016-06-18,112.42666666666666,,112.42666666666666
305,2016-06-19,170.98833333333334,,170.98833333333334
305,2016-06-20,0.0,,0.0
305,2016-06-21,0.0,,0.0
305,2016-06-22,0.0,,0.0
305,2016-06-23,0.0,,0.0
305,2016-06-24,0.0,,0.0
305,2016-06-25,0.0,,0.0
305,2016-06-26,0.0,,0.0
305,2016-06-27,0.0,,0.0
305,2016-06-28,0.0,,0.0
305,2016-06-29,0.0,,0.0
305,2016-06-30,108.14666666666666,,108.14666666666666
305,2016-07-01,94.205,,94.205
305,2016-07-02,0.0,,0.0
305,2016-07-03,0.0,,0.0
305,2016-07-04,0.0,,0.0
305,2016-07-05,0.0,,0.0
305,2016-07-06,0.0,,0.0
305,2016-07-07,0.0,,0.0
305,2016-07-08,56.68,,56.68
305,2016-07-09,0.38666666666666666,,0.38666666666666666
305,2016-07-10,0.0,,0.0
305,2016-07-11,0.0,,0.0
305,2016-07-12,0.0,,0.0
305,2016-07-13,0.0,,0.0
305,2016-07-14,39.77833333333333,,39.77833333333333
305,2016-07-15,123.22000000000001,,123.22000000000001
305,2016-07-16,150.91333333333333,,150.91333333333333
305,2016-07-17,148.12166666666667,,148.12166666666667
305,2016-07-18,108.93666666666667,,108.93666666666667
305,2016-07-19,130.45833333333334,,130.45833333333334
305,2016-07-20,182.37333333333333,,182.37333333333333
305,2016-07-21,182.57500000000002,,182.57500000000002
305,2016-07-22,144.35999999999999,,144.35999999999999
305,2016-07-23,163.415,,163.415
305,2016-07-24,177.21166666666667,,177.21166666666667
305,2016-07-25,106.36166666666666,,106.36166666666666
305,2016-07-26,156.28666666666666,,156.28666666666666
305,2016-07-27,178.32000000000002,,178.32000000000002
305,2016-07-28,130.80333333333334,,130.80333333333334
305,2016-07-29,135.04999999999998,,135.04999999999998
305,2016-07-30,89.43666666666667,,89.43666666666667
305,2016-07-31,24.069999999999997,,24.069999999999997
305,2016-08-01,43.09833333333333,,43.09833333333333
305,2016-08-02,74.42999999999999,,74.42999999999999
305,2016-08-03,174.61,,174.61
305,2016-08-04,174.4,,174.4
305,2016-08-05,172.94333333333336,,172.94333333333336
305,2016-08-06,148.25666666666666,,148.25666666666666
305,2016-08-07,176.51833333333332,,176.51833333333332
305,2016-08-08,179.20666666666668,,179.20666666666668
305,2016-08-09,175.85666666666668,,175.85666666666668
305,2016-08-10,76.84666666666666,,76.84666666666666
305,2016-08-11,131.09,,131.09
305,2016-08-12,127.89833333333333,,127.89833333333333
305,2016-08-13,143.73666666666665,,143.73666666666665
305,2016-08-14,0.0,,0.0
305,2016-08-15,0.0,,0.0
305,2016-08-16,0.0,,0.0
305,2016-08-17,0.0,,0.0
305,2016-08-18,0.0,,0.0
305,2016-08-19,0.0,,0.0
305,2016-08-20,0.0,,0.0
305,2016-08-21,0.0,,0.0
305,2016-08-22,0.0,,0.0
305,2016-08-23,0.0,,0.0
305,2016-08-24,0.0,,0.0
305,2016-08-25,0.0,,0.0
305,2016-08-26,0.0,,0.0
305,2016-08-27,0.0,,0.0
305,2016-08-28,0.0,,0.0
305,2016-08-29,124.87833333333333,,124.87833333333333
305,2016-08-30,154.55166666666665,,154.55166666666665
305,2016-08-31,44.30166666666667,,44.30166666666667
305,2016-09-01,103.08999999999999,,103.08999999999999
305,2016-09-02,129.43166666666667,,129.43166666666667
305,2016-09-03,150.005,,150.005
305,2016-09-04,148.22666666666666,,148.22666666666666
305,2016-09-05,151.67499999999998,,151.67499999999998
305,2016-09-06,136.08,,136.08
305,2016-09-07,141.41,,141.41
305,2016-09-08,98.01333333333334,,98.01333333333334
305,2016-09-09,130.56333333333333,,130.56333333333333
305,2016-09-10,107.45166666666667,,107.45166666666667
305,2016-09-11,126.39666666666666,,126.39666666666666
305,2016-09-12,142.00333333333333,,142.00333333333333
305,2016-09-13,142.64833333333334,,142.64833333333334
305,2016-09-14,91.90666666666668,,91.90666666666668
305,2016-09-15,150.12333333333333,,150.12333333333333
305,2016-09-16,144.94833333333335,,144.94833333333335
305,2016-09-17,132.58833333333334,,132.58833333333334
305,2016-09-18,45.76166666666666,,45.76166666666666
305,2016-09-19,0.03333333333333333,,0.03333333333333333
305,2016-09-20,0.0,,0.0
305,2016-09-21,0.0,,0.0
305,2016-09-22,0.0,,0.0
305,2016-09-23,0.0,,0.0
305,2016-09-24,0.0,,0.0
305,2016-09-25,0.0,,0.0
305,2016-09-26,0.0,,0.0
305,2016-09-27,78.64,,78.64
305,2016-09-28,95.04166666666667,,95.04166666666667
305,2016-09-29,98.47333333333334,,98.47333333333334
305,2016-09-30,57.76333333333333,,57.76333333333333
305,2016-10-01,41.70666666666667,,41.70666666666667
305,2016-10-02,7.113333333333333,,7.113333333333333
305,2016-10-03,0.0,,0.0
305,2016-10-04,0.0,,0.0
305,2016-10-05,0.0,,0.0
305,2016-10-06,0.0,,0.0
305,2016-10-07,0.0,,0.0
305,2016-10-08,0.0,,0.0
305,2016-10-09,0.0,,0.0
305,2016-10-10,0.0,,0.0
305,2016-10-11,0.0,,0.0
305,2016-10-12,111.295,,111.295
305,2016-10-13,44.355,,44.355
305,2016-10-14,127.59833333333334,,127.59833333333334
305,2016-10-15,121.29,,121.29
305,2016-10-16,48.315,,48.315
305,2016-10-17,0.03166666666666667,,0.03166666666666667
305,2016-10-18,0.0,,0.0
305,2016-10-19,0.0,,0.0
305,2016-10-20,0.0,,0.0
305,2016-10-21,0.725,,0.725
305,2016-10-22,8.985,,8.985
305,2016-10-23,110.36833333333334,,110.36833333333334
305,2016-10-24,62.26666666666667,,62.26666666666667
305,2016-10-25,95.41666666666667,,95.41666666666667
305,2016-10-26,76.25333333333333,,76.25333333333333
305,2016-10-27,10.618333333333334,,10.618333333333334
305,2016-10-28,70.20333333333333,,70.20333333333333
305,2016-10-29,14.948333333333332,,14.948333333333332
305,2016-10-30,33.17166666666667,,33.17166666666667
305,2016-10-31,91.33,,91.33
305,2016-11-01,97.58999999999999,,97.58999999999999
305,2016-11-02,49.38833333333333,,49.38833333333333
305,2016-11-03,14.836666666666666,,14.836666666666666
305,2016-11-04,103.85666666666667,,103.85666666666667
305,2016-11-05,43.57,,43.57
305,2016-11-06,53.291666666666664,,53.291666666666664
305,2016-11-07,81.93166666666666,,81.93166666666666
305,2016-11-08,92.325,,92.325
305,2016-11-09,12.0,,12.0
305,2016-11-10,71.55499999999999,,71.55499999999999
305,2016-11-11,48.696666666666665,,48.696666666666665
305,2016-11-12,91.76333333333334,,91.76333333333334
305,2016-11-13,90.07,,90.07
305,2016-11-14,87.17166666666667,,87.17166666666667
305,2016-11-15,12.969999999999999,,12.969999999999999
305,2016-11-16,23.42,,23.42
305,2016-11-17,31.628333333333334,,31.628333333333334
305,2016-11-18,77.455,,77.455
305,2016-11-19,76.785,,76.785
305,2016-11-20,3.0216666666666665,,3.0216666666666665
305,2016-11-21,15.395000000000001,,15.395000000000001
305,2016-11-22,34.63333333333333,,34.63333333333333
305,2016-11-23,79.85833333333333,,79.85833333333333
305,2016-11-24,19.728333333333335,,19.728333333333335
305,2016-11-25,23.468333333333334,,23.468333333333334
305,2016-11-26,20.851666666666667,,20.851666666666667
305,2016-11-27,24.71666666666667,,24.71666666666667
305,2016-11-28,74.505,,74.505
305,2016-11-29,3.9933333333333336,,3.9933333333333336
305,2016-11-30,11.116666666666667,,11.116666666666667
305,2016-12-01,11.893333333333333,,11.893333333333333
305,2016-12-02,46.97833333333333,,46.97833333333333
305,2016-12-03,52.53333333333333,,52.53333333333333
305,2016-12-04,32.48166666666666,,32.48166666666666
305,2016-12-05,4.298333333333333,,4.298333333333333
305,2016-12-06,49.968333333333334,,49.968333333333334
305,2016-12-07,7.763333333333333,,7.763333333333333
305,2016-12-08,33.123333333333335,,33.123333333333335
305,2016-12-09,58.346666666666664,,58.346666666666664
305,2016-12-10,70.55333333333333,,70.55333333333333
305,2016-12-11,47.77,,47.77
305,2016-12-12,0.6766666666666666,,0.6766666666666666
305,2016-12-13,21.771666666666665,,21.771666666666665
305,2016-12-14,25.46666666666667,,25.46666666666667
305,2016-12-15,38.858333333333334,,38.858333333333334
305,2016-12-16,36.86333333333334,,36.86333333333334
305,2016-12-17,0.20166666666666666,,0.20166666666666666
305,2016-12-18,6.326666666666667,,6.326666666666667
305,2016-12-19,73.22833333333334,,73.22833333333334
305,2016-12-20,0.03333333333333333,,0.03333333333333333
305,2016-12-21,0.0,,0.0
305,2016-12-22,0.0,,0.0
305,2016-12-23,0.0,,0.0
305,2016-12-24,0.0,,0.0
305,2016-12-25,0.0,,0.0
305,2016-12-26,0.0,,0.0
305,2016-12-27,0.0,,0.0
305,2016-12-28,0.0,,0.0
305,2016-12-29,0.6983333333333334,,0.6983333333333334
305,2016-12-30,0.38166666666666665,,0.38166666666666665
305,2016-12-31,3.4116666666666666,,3.4116666666666666
305,2017-01-01,21.650000000000002,,21.650000000000002
305,2017-01-02,28.625,,28.625
305,2017-01-03,8.53,,8.53
305,2017-01-04,21.438333333333333,,21.438333333333333
305,2017-01-05,52.43666666666667,,52.43666666666667
305,2017-01-06,54.84166666666667,,54.84166666666667
305,2017-01-07,33.678333333333335,,33.678333333333335
305,2017-01-08,29.971666666666668,,29.971666666666668
305,2017-01-09,39.655,,39.655
305,2017-01-10,23.093333333333334,,23.093333333333334
305,2017-01-11,20.926666666666666,,20.926666666666666
305,2017-01-12,0.0,,0.0
305,2017-01-13,0.0,,0.0
305,2017-01-14,0.0,,0.0
305,2017-01-15,0.0,,0.0
305,2017-01-16,0.0,,0.0
305,2017-01-17,0.0,,0.0
305,2017-01-18,0.0,,0.0
305,2017-01-19,3.235,,3.235
305,2017-01-20,17.476666666666667,,17.476666666666667
305,2017-01-21,39.63333333333333,,39.63333333333333
305,2017-01-22,11.526666666666666,,11.526666666666666
305,2017-01-23,25.0,,25.0
305,2017-01-24,1.455,,1.455
305,2017-01-25,2.7116666666666664,,2.7116666666666664
305,2017-01-26,23.345,,23.345
305,2017-01-27,50.41833333333333,,50.41833333333333
305,2017-01-28,28.17,,28.17
305,2017-01-29,66.76333333333334,,66.76333333333334
305,2017-01-30,78.88833333333334,,78.88833333333334
305,2017-01-31,29.228333333333335,,29.228333333333335
305,2017-02-01,22.126666666666665,,22.126666666666665
305,2017-02-02,76.10833333333333,,76.10833333333333
305,2017-02-03,65.21166666666666,,65.21166666666666
305,2017-02-04,70.25166666666667,,70.25166666666667
305,2017-02-05,46.64666666666667,,46.64666666666667
305,2017-02-06,73.54166666666667,,73.54166666666667
305,2017-02-07,5.673333333333333,,5.673333333333333
305,2017-02-08,32.81666666666667,,32.81666666666667
305,2017-02-09,0.17,,0.17
305,2017-02-10,1.0566666666666666,,1.0566666666666666
305,2017-02-11,0.22166666666666668,,0.22166666666666668
305,2017-02-12,0.17833333333333334,,0.17833333333333334
305,2017-02-13,10.838333333333333,,10.838333333333333
305,2017-02-14,18.098333333333333,,18.098333333333333
305,2017-02-15,14.526666666666666,,14.526666666666666
305,2017-02-16,30.34166666666667,,30.34166666666667
305,2017-02-17,52.38166666666667,,52.38166666666667
305,2017-02-18,54.66166666666667,,54.66166666666667
305,2017-02-19,83.65666666666667,,83.65666666666667
305,2017-02-20,93.95,,93.95
305,2017-02-21,61.48333333333333,,61.48333333333333
305,2017-02-22,82.85666666666667,,82.85666666666667
305,2017-02-23,74.50333333333333,,74.50333333333333
305,2017-02-24,66.03,,66.03
305,2017-02-25,49.54333333333333,,49.54333333333333
305,2017-02-26,62.875,,62.875
305,2017-02-27,89.03166666666668,,89.03166666666668
305,2017-02-28,71.60833333333333,,71.60833333333333
305,2017-03-01,28.676666666666666,,28.676666666666666
305,2017-03-02,77.635,,77.635
305,2017-03-03,87.82833333333333,,87.82833333333333
305,2017-03-04,100.0,,100.0
305,2017-03-05,112.37666666666667,,112.37666666666667
305,2017-03-06,81.705,,81.705
305,2017-03-07,12.668333333333335,,12.668333333333335
305,2017-03-08,89.305,,89.305
305,2017-03-09,88.58999999999999,,88.58999999999999
305,2017-03-10,55.15166666666667,,55.15166666666667
305,2017-03-11,80.68833333333333,,80.68833333333333
305,2017-03-12,112.96833333333332,,112.96833333333332
305,2017-03-13,88.52499999999999,,88.52499999999999
305,2017-03-14,0.25833333333333336,,0.25833333333333336
305,2017-03-15,28.491666666666664,,28.491666666666664
305,2017-03-16,54.629999999999995,,54.629999999999995
305,2017-03-17,87.26333333333334,,87.26333333333334
305,2017-03-18,78.88666666666667,,78.88666666666667
305,2017-03-19,122.10166666666667,,122.10166666666667
305,2017-03-20,114.24000000000001,,114.24000000000001
305,2017-03-21,81.10333333333334,,81.10333333333334
305,2017-03-22,128.07,,128.07
305,2017-03-23,127.36333333333333,,127.36333333333333
305,2017-03-24,15.931666666666667,,15.931666666666667
305,2017-03-25,18.55333333333333,,18.55333333333333
305,2017-03-26,23.89833333333333,,23.89833333333333
305,2017-03-27,26.52,,26.52
305,2017-03-28,26.09,,26.09
305,2017-03-29,65.46,,65.46
305,2017-03-30,99.22833333333334,,99.22833333333334
305,2017-03-31,2.265,,2.265
305,2017-04-01,43.14333333333334,,43.14333333333334
305,2017-04-02,120.97000000000001,,120.97000000000001
305,2017-04-03,92.97166666666668,,92.97166666666668
305,2017-04-04,13.590000000000002,,13.590000000000002
305,2017-04-05,50.10166666666667,,50.10166666666667
305,2017-04-06,9.271666666666667,,9.271666666666667
305,2017-04-07,41.208333333333336,,41.208333333333336
305,2017-04-08,90.13166666666666,,90.13166666666666
305,2017-04-09,129.13833333333335,,129.13833333333335
305,2017-04-10,100.84333333333332,,100.84333333333332
305,2017-04-11,121.90666666666668,,121.90666666666668
305,2017-04-12,101.36166666666666,,101.36166666666666
305,2017-04-13,153.76166666666668,,153.76166666666668
305,2017-04-14,188.40333333333334,,188.40333333333334
305,2017-04-15,141.24166666666667,,141.24166666666667
305,2017-04-16,142.51833333333335,,142.51833333333335
305,2017-04-17,172.495,,172.495
305,2017-04-18,181.19500000000002,,181.19500000000002
305,2017-04-19,69.83833333333332,,69.83833333333332
305,2017-04-20,94.11,,94.11
305,2017-04-21,37.115,,37.115
305,2017-04-22,88.86500000000001,,88.86500000000001
305,2017-04-23,194.12,,194.12
305,2017-04-24,186.09166666666667,,186.09166666666667
305,2017-04-25,46.63999999999999,,46.63999999999999
305,2017-04-26,90.16166666666668,,90.16166666666668
305,2017-04-27,115.2,,115.2
305,2017-04-28,167.38333333333333,,167.38333333333333
305,2017-04-29,77.69333333333334,,77.69333333333334
305,2017-04-30,70.92333333333333,,70.92333333333333
305,2017-05-01,142.94833333333335,,142.94833333333335
305,2017-05-02,53.050000000000004,,53.050000000000004
305,2017-05-03,135.14833333333334,,135.14833333333334
305,2017-05-04,117.66166666666668,,117.66166666666668
305,2017-05-05,18.746666666666666,,18.746666666666666
305,2017-05-06,95.78500000000001,,95.78500000000001
305,2017-05-07,107.05166666666666,,107.05166666666666
305,2017-05-08,114.315,,114.315
305,2017-05-09,73.44166666666666,,73.44166666666666
305,2017-05-10,119.91166666666668,,119.91166666666668
305,2017-05-11,186.42166666666665,,186.42166666666665
305,2017-05-12,182.16166666666666,,182.16166666666666
305,2017-05-13,37.895,,37.895
305,2017-05-14,101.92666666666666,,101.92666666666666
305,2017-05-15,127.94833333333334,,127.94833333333334
305,2017-05-16,190.36333333333334,,190.36333333333334
305,2017-05-17,182.215,,182.215
305,2017-05-18,168.71333333333334,,168.71333333333334
305,2017-05-19,187.10166666666666,,187.10166666666666
305,2017-05-20,201.37333333333333,,201.37333333333333
305,2017-05-21,121.15499999999999,,121.15499999999999
305,2017-05-22,58.156666666666666,,58.156666666666666
305,2017-05-23,153.92833333333334,,153.92833333333334
305,2017-05-24,153.01666666666668,,153.01666666666668
305,2017-05-25,40.19,,40.19
305,2017-05-26,42.70166666666666,,42.70166666666666
305,2017-05-27,176.56333333333336,,176.56333333333336
305,2017-05-28,112.3,,112.3
305,2017-05-29,34.501666666666665,,34.501666666666665
305,2017-05-30,27.423333333333332,,27.423333333333332
305,2017-05-31,142.35,,142.35
305,2017-06-01,165.58,,165.58
305,2017-06-02,144.79,,144.79
305,2017-06-03,145.43833333333333,,145.43833333333333
305,2017-06-04,72.07833333333333,,72.07833333333333
305,2017-06-05,38.97166666666667,,38.97166666666667
305,2017-06-06,35.17,,35.17
305,2017-06-07,196.62833333333333,,196.62833333333333
305,2017-06-08,159.10999999999999,,159.10999999999999
305,2017-06-09,151.95000000000002,,151.95000000000002
305,2017-06-10,159.54,,159.54
305,2017-06-11,180.62166666666667,,180.62166666666667
305,2017-06-12,177.14499999999998,,177.14499999999998
305,2017-06-13,150.46333333333334,,150.46333333333334
305,2017-06-14,194.52833333333334,,194.52833333333334
305,2017-06-15,148.16,,148.16
305,2017-06-16,29.595,,29.595
305,2017-06-17,138.08833333333334,,138.08833333333334
305,2017-06-18,158.4,,158.4
305,2017-06-19,80.63666666666667,,80.63666666666667
305,2017-06-20,160.62333333333333,,160.62333333333333
305,2017-06-21,187.35666666666668,,187.35666666666668
305,2017-06-22,147.27833333333334,,147.27833333333334
305,2017-06-23,97.08,,97.08
305,2017-06-24,175.285,,175.285
305,2017-06-25,156.03,,156.03
305,2017-06-26,0.0,,0.0
305,2017-06-27,0.0,,0.0
305,2017-06-28,0.0,,0.0
305,2017-06-29,0.0,,0.0
305,2017-06-30,0.0,,0.0
305,2017-07-01,0.0,,0.0
305,2017-07-02,0.0,,0.0
305,2017-07-03,0.0,,0.0
305,2017-07-04,0.0,,0.0
305,2017-07-05,0.0,,0.0
305,2017-07-06,0.0,,0.0
305,2017-07-07,0.0,,0.0
305,2017-07-08,0.0,,0.0
305,2017-07-09,0.0,,0.0
305,2017-07-10,0.0,,0.0
305,2017-07-11,0.0,,0.0
305,2017-07-12,0.0,,0.0
305,2017-07-13,0.0,,0.0
305,2017-07-14,0.0,,0.0
305,2017-07-15,0.0,,0.0
305,2017-07-16,0.0,,0.0
305,2017-07-17,0.0,,0.0
305,2017-07-18,0.0,,0.0
305,2017-07-19,0.0,,0.0
305,2017-07-20,0.0,,0.0
305,2017-07-21,0.0,,0.0
305,2017-07-22,0.0,,0.0
305,2017-07-23,0.0,,0.0
305,2017-07-24,0.0,,0.0
305,2017-07-25,0.0,,0.0
305,2017-07-26,0.0,,0.0
305,2017-07-27,0.0,,0.0
305,2017-07-28,0.0,,0.0
305,2017-07-29,0.0,,0.0
305,2017-07-30,0.0,,0.0
305,2017-07-31,0.0,,0.0
305,2017-08-01,0.0,,0.0
305,2017-08-02,0.0,,0.0
305,2017-08-03,0.0,,0.0
305,2017-08-04,0.0,,0.0
305,2017-08-05,0.0,,0.0
305,2017-08-06,0.0,,0.0
305,2017-08-07,0.0,,0.0
305,2017-08-08,0.0,,0.0
305,2017-08-09,0.0,,0.0
305,2017-08-10,0.0,,0.0
305,2017-08-11,0.0,,0.0
305,2017-08-12,0.0,,0.0
305,2017-08-13,0.0,,0.0
305,2017-08-14,0.0,,0.0
305,2017-08-15,0.0,,0.0
305,2017-08-16,0.0,,0.0
305,2017-08-17,0.0,,0.0
305,2017-08-18,0.0,,0.0
305,2017-08-19,0.0,,0.0
305,2017-08-20,0.0,,0.0
305,2017-08-21,0.0,,0.0
305,2017-08-22,0.0,,0.0
305,2017-08-23,0.0,,0.0
305,2017-08-24,0.0,,0.0
305,2017-08-25,42.62,,42.62
305,2017-08-26,153.59666666666666,,153.59666666666666
305,2017-08-27,150.82500000000002,,150.82500000000002
305,2017-08-28,130.72,,130.72
305,2017-08-29,44.79,,44.79
305,2017-08-30,158.23499999999999,,158.23499999999999
305,2017-08-31,90.055,,90.055